Flag for Qatar Weather past 2 weeks in Al Khor, Qatar

Now
97 °F

Clear.


Feels Like: 110 °F
Forecast: 92 / 108 °F
Wind: 5 mph from West

Location: Doha International Airport

Current Time: Jul 29, 2015 at 6:28:26 AM

Latest Report: Jul 29, 2015 at 5:00 AM


Visibility: 5 mi

Pressure: 29.45 "Hg

Humidity: 50%

Dew point: 75 °F

Historic Weather in Al Khor — Graph

°F

Al Khor temperature yesterday

Maximum temperature yesterday: 108 °F (at 2:00 PM)
Minimum temperature yesterday: 93 °F (at 1:00 AM)
Average temperature yesterday: 98 °F

Past Weeks' High & Low Weather Summary

 TemperatureHumidityPressure
High118 °F (Jul 27, 5:00 PM)84% (Jul 15, 3:00 AM)32.26 "Hg (Jul 15, 3:00 AM)
Low88 °F (Jul 15, 3:00 AM)6% (Jul 19, 1:00 PM)29.33 "Hg (Jul 17, 3:00 AM)
Average100 °F43%29.45 "Hg
* Reported Jul 14 5:00 AM — Jul 29 5:00 AM, Al Khor, Weather by CustomWeather, © 2015

Note: Actual official high and low records may vary slightly from our data, if they occured in-between our weather recording intervals... More about our weather records

Advertising

Al Khor weather history for previous 24 hours

 ConditionsComfort  
Time TempWeatherWind HumidityBarometerVisibility
5:00 AM
Wed, Jul 29
97 °FClear.5 mph50%29.45 "Hg5 mi
4:00 AM97 °FClear.13 mph53%29.45 "Hg6 mi
3:00 AM95 °FClear.6 mph56%29.42 "Hg5 mi
2:00 AM95 °FClear.6 mph75%29.45 "Hg5 mi
1:00 AM95 °FClear.7 mph71%29.45 "Hg5 mi
12:00 AM95 °FPassing clouds.7 mph71%29.45 "HgN/A
11:00 PM
Tue, Jul 28
95 °FClear.3 mph67%29.47 "Hg5 mi
10:00 PM95 °FClear.5 mph71%29.47 "Hg4 mi
9:00 PM95 °FClear.5 mph71%29.47 "Hg4 mi
8:00 PM95 °FClear.5 mph71%29.45 "Hg5 mi
7:00 PM97 °FClear.7 mph67%29.45 "Hg5 mi
6:00 PM99 °FClear.9 mph64%29.45 "Hg5 mi
5:00 PM100 °FClear.12 mph57%29.42 "Hg5 mi
4:00 PM102 °FExtremely hot.10 mph54%29.42 "Hg5 mi
3:00 PM106 °FSunny.9 mph40%29.45 "Hg10 mi
2:00 PM108 °FSunny.9 mph36%29.45 "Hg10 mi
11:00 AM104 °FSunny.9 mph33%29.47 "Hg10 mi
10:00 AM104 °FSunny.9 mph31%29.47 "Hg10 mi
9:00 AM102 °FSunny.8 mph35%29.47 "Hg10 mi
8:00 AM100 °FSunny.8 mph57%29.47 "Hg10 mi
7:00 AM97 °FSunny.8 mph53%29.47 "Hg10 mi
6:00 AM95 °FSunny.6 mph63%29.47 "Hg10 mi
Weather by CustomWeather, © 2015

See weather overviewHow to use our weather pages